User: anonymous   Login
Location: Curupao
(10.4996°N, 66.6442°W)
Time: 12:16:38
(UTC+00:00)
Language:

CENTAUR R/B - Orbit

View from above orbital plane
View from above orbital plane
View from above satellite
View from above satellite

Ground track
Ground track

The orbit data is extracted from the following two-line orbital elements,

1 26906U 01040B   24206.19626551  .00000819  00000-0  57943-3 0  9996
2 26906  63.4302 147.0380 0571254 340.1256  17.8296 13.44555663 10209
Epoch (UTC): 24 July 2024 04:42:37
Eccentricity: 0.0571254
inclination: 63.4302°
perigee height: 665 km
apogee height: 1519 km
right ascension of ascending node: 147.0380°
argument of perigee: 340.1256°
revolutions per day: 13.44555663
mean anomaly at epoch: 17.8296°
orbit number at epoch: 1020

The dashed part of the orbit path shows where the satellite is in the earth's shadow,  

DLR